Weather Roundup
Issued by NWS Chicago, IL

Home | Current Version | Previous Version | Text Only | Print | Product List | Glossary On
Versions: 1 2 3 4 5 6 7 8 9 10 11 12 13 14 15 16 17 18 19 20 21 22 23 24 25 26 27 28 29 30 31 32 33 34 35 36 37 38 39 40 41 42 43 44 45 46 47 48 49 50
168
NZUS59 KLOT 271308
HRRLOT

CHICAGO AREA WEATHER ROUNDUP
NATIONAL WEATHER SERVICE CHICAGO/ROMEOVILLE IL
800 AM CDT THU APR 27 2017

NOTE: "FAIR" INDICATES FEW OR NO CLOUDS BELOW 12,000 FEET WITH NO
SIGNIFICANT WEATHER AND/OR OBSTRUCTIONS TO VISIBILITY.

* THESE STATIONS ARE NOT UNDER NWS QUALITY CONTROL. THEY ALSO MAY NOT
  REPORT WEATHER SUCH AS PRECIPITATION OR FOG.

ILZ005-006-012>014-019>023-271400-
NORTHEAST ILLINOIS

CITY           SKY/WX    TMP DP  RH WIND       PRES   REMARKS
OHARE          LGT RAIN  48  45  89 W26G32    29.40R FOG
MIDWAY         CLOUDY    48  45  89 SW24G30   29.43R
AURORA         LGT RAIN  45  42  89 W21G31    29.48R FOG
LANSING*       CLOUDY    48  46  95 W22G31    29.46R
JOLIET*        CLOUDY    46  44  93 W15G22    29.50R
WAUKEGAN       LGT RAIN  47  46  97 VRB7G21   29.35R FOG
DUPAGE AIRPORT CLOUDY    45  45 100 W17G28    29.45R FOG
WHEELING       CLOUDY    48  48 100 W16G23    29.39R FOG
KANKAKEE*      CLOUDY    47  44  90 W23       29.53R
MORRIS*        CLOUDY    44  41  91 W21G26    29.51R
LEWIS AIRPORT* CLOUDY    45  45 100 W21G30    29.48R FOG
$$

WIZ051-052-058>065-066-070>072-271400-
SOUTHEAST WISCONSIN

CITY           SKY/WX    TMP DP  RH WIND       PRES   REMARKS
MILWAUKEE      LGT RAIN  48  46  93 W13       29.29R
KENOSHA*       LGT RAIN  46  44  93 W15G21    29.34R FOG
RACINE*        RAIN      49  46  90 W9        29.33R FOG
WAUKESHA       CLOUDY    43  41  93 W17       29.32R
WEST BEND      RAIN      43  43 100 W9        29.29R
$$

INZ001>003-010>013-019-020-271400-
NORTHWEST INDIANA

CITY           SKY/WX    TMP DP  RH WIND       PRES   REMARKS
GARY*          CLOUDY    50  45  81 SW26G43   29.44R
MICHIGAN CITY* NOT AVBL
RENSSELAER*    NOT AVBL
VALPARAISO     CLOUDY    53  48  83 SW29G38   29.46R
$$

LMZ740>746-271400-
SOUTHERN LAKE MICHIGAN

STATION/POSITION TIME  SKY/WX   TEMP WIND        PRES    VSBY
                                AIR  DIR/SP/G
                 (UTC)          (F)  (DEG/KT/KT) (MB)    (MI)
HARRISON CRIB    1230            53  240/ 22/ 26   N/A
BURNHAM HARBOR   1300            48  230/ 21/ 29   N/A
CALUMET HARBOR   1242            49  220/ 13/ 23  995.6R
BURNS HARBOR     1240            54  220/ 23/ 31  996.3R
MICHIGAN CITY    1240            57  190/ 29/ 33   N/A
$$

ABBREVIATIONS USED IN REMARKS
   TC - TEMPERATURE IN CELSIUS
  WCI - WIND CHILL INDEX
   HX - HEAT INDEX
  VSB - VISIBILITY
$$




USA.gov is the U.S. government's official web portal to all federal, state and local government web resources and services.